STARLINK-35260

Last updated on Mon Oct 20 2025 00:02:06 GMT+0000 (Coordinated Universal Time)

1 65751U 25216T 25292.23317342 .00136331 00000+0 24124-2 0 9996 2 65751 53.1587 272.2312 0001296 99.6466 260.4690 15.49360655 4850
UTC large
Height (km)
Speed (km/s)
/
Latitude / Longitude
Inclination (degrees)
Orbital Period (minutes)
Azimuth
Elevation
Range (km)
Doppler Factor

Next 0 passes for location: London (51.5072 / 0.1276)

Sorry there are no passes over London.